TimeEDT,TemperatureF,Dew PointF,Humidity,Sea Level PressureIn,VisibilityMPH,Wind Direction,Wind SpeedMPH,Gust SpeedMPH,PrecipitationIn,Events,Conditions,WindDirDegrees,DateUTC
12:55 AM,81.0,70.0,69,30.25,10.0,SW,9.2,-,N/A,,Clear,230,2013-07-17 04:55:00
1:55 AM,81.0,71.1,72,30.25,10.0,WSW,10.4,-,N/A,,Clear,240,2013-07-17 05:55:00
2:55 AM,80.1,72.0,76,30.24,10.0,WSW,6.9,-,N/A,,Clear,250,2013-07-17 06:55:00
3:55 AM,80.1,72.0,76,30.25,10.0,West,8.1,-,N/A,,Clear,260,2013-07-17 07:55:00
4:55 AM,79.0,72.0,79,30.25,10.0,West,6.9,-,N/A,,Clear,260,2013-07-17 08:55:00
5:55 AM,78.1,72.0,81,30.26,10.0,West,4.6,-,N/A,,Partly Cloudy,270,2013-07-17 09:55:00
6:55 AM,78.1,73.0,84,30.27,10.0,West,4.6,-,N/A,,Partly Cloudy,270,2013-07-17 10:55:00
7:55 AM,81.0,73.0,77,30.28,10.0,West,4.6,-,N/A,,Partly Cloudy,270,2013-07-17 11:55:00
8:55 AM,82.9,73.0,72,30.28,10.0,WNW,6.9,-,N/A,,Partly Cloudy,290,2013-07-17 12:55:00
9:55 AM,84.9,73.0,67,30.29,10.0,West,8.1,-,N/A,,Clear,260,2013-07-17 13:55:00
10:55 AM,86.0,73.0,65,30.29,10.0,WSW,6.9,-,N/A,,Scattered Clouds,250,2013-07-17 14:55:00
11:55 AM,86.0,73.0,65,30.28,10.0,SW,9.2,-,N/A,,Partly Cloudy,220,2013-07-17 15:55:00
12:55 PM,87.1,73.0,63,30.27,10.0,WSW,6.9,-,N/A,,Partly Cloudy,240,2013-07-17 16:55:00
1:55 PM,88.0,73.0,61,30.26,10.0,WSW,9.2,-,N/A,,Partly Cloudy,240,2013-07-17 17:55:00
2:55 PM,87.1,73.0,63,30.25,10.0,SW,8.1,-,N/A,,Partly Cloudy,230,2013-07-17 18:55:00
3:55 PM,88.0,73.0,61,30.23,10.0,WSW,8.1,-,N/A,,Partly Cloudy,250,2013-07-17 19:55:00
4:55 PM,89.1,73.0,59,30.22,10.0,SW,9.2,-,N/A,,Scattered Clouds,230,2013-07-17 20:55:00
5:55 PM,88.0,72.0,59,30.20,10.0,SW,10.4,-,N/A,,Scattered Clouds,220,2013-07-17 21:55:00
6:55 PM,84.9,72.0,65,30.18,10.0,SW,9.2,-,N/A,,Scattered Clouds,230,2013-07-17 22:55:00
7:55 PM,84.0,72.0,67,30.17,10.0,WSW,6.9,-,N/A,,Scattered Clouds,240,2013-07-17 23:55:00
8:55 PM,82.0,72.0,71,30.17,10.0,SSW,4.6,-,N/A,,Scattered Clouds,210,2013-07-18 00:55:00
9:55 PM,80.1,72.0,76,30.17,10.0,South,4.6,-,N/A,,Scattered Clouds,190,2013-07-18 01:55:00
10:55 PM,80.1,72.0,76,30.17,10.0,ESE,3.5,-,N/A,,Scattered Clouds,120,2013-07-18 02:55:00
11:55 PM,79.0,72.0,79,30.17,10.0,South,3.5,-,N/A,,Clear,190,2013-07-18 03:55:00